Location: Highland Meadows Observing Site
(48.4428°N, 114.5461°W)
Time: 07:20:05
(UTC-06:00)

Gurwin Techsat 1B - Visible Passes

Search period start: 28 July 2015 00:00
Search period end: 07 August 2015 00:00
Orbit: 812 x 814 km, 98.5° (Epoch: 27 July)

Date Brightness Start Highest point End Pass type
(mag) Time Alt. Az. Time Alt. Az. Time Alt. Az.
28 Jul 10.7 02:59:17 10° NE 03:02:56 19° E 03:06:45 10° SE visible
28 Jul 8.7 04:38:11 10° N 04:43:31 69° WNW 04:48:09 14° SSW visible
29 Jul 11.0 02:37:54 10° ENE 02:39:48 12° E 02:42:00 10° ESE visible
29 Jul 8.7 04:15:25 10° NNE 04:20:47 80° ESE 04:25:05 16° S visible
30 Jul 9.2 03:52:46 10° NNE 03:57:58 52° E 04:01:59 17° S visible
31 Jul 9.9 03:30:16 10° NNE 03:35:04 34° E 03:38:54 15° SSE visible
31 Jul 9.3 05:10:12 10° N 05:15:08 39° WNW 05:20:01 10° SW visible
01 Aug 10.5 03:08:00 10° NE 03:12:05 23° E 03:15:49 12° SE visible
01 Aug 8.8 04:47:15 10° N 04:52:30 58° WNW 04:57:01 14° SW visible
02 Aug 10.9 02:46:11 10° NE 02:48:59 15° E 02:52:01 10° ESE visible
02 Aug 8.6 04:24:26 10° NNE 04:29:48 87° WNW 04:33:56 17° SSW visible
03 Aug 9.0 04:01:43 10° NNE 04:07:01 62° E 04:10:51 19° S visible
04 Aug 9.6 03:39:10 10° NNE 03:44:10 40° E 03:47:45 18° SSE visible
04 Aug 9.5 05:19:19 10° N 05:24:05 33° WNW 05:28:46 10° SW visible
05 Aug 10.2 03:16:47 10° NE 03:21:12 27° E 03:24:40 15° SE visible
05 Aug 9.0 04:56:21 10° N 05:01:28 49° WNW 05:05:52 14° SW visible
06 Aug 10.8 02:54:43 10° NE 02:58:09 18° E 03:01:34 11° SE visible
06 Aug 8.6 04:33:28 10° N 04:38:48 74° WNW 04:42:47 18° SSW visible
